JO1YDG-13 Weather Reports


Display with metric or nautical units.
time (UTC)temp
F
wind
direction
speed
MPH
gust
MPH
rain 1hr
in
rain 24hr
in
rain mn
in
humidity
%
barometer
mb
20260505114209 60 236 3.0 5.0 0.00 0.00 0.00 51 993.5
20260505113711 60 254 2.0 2.0 0.00 0.00 0.00 51 993.2
20260505113210 60 257 5.0 6.0 0.00 0.00 0.00 51 993.2
20260505112709 60 258 3.0 3.0 0.00 0.00 0.00 51 993.1
20260505112209 60 193 3.0 6.0 0.00 0.00 0.00 51 993.1
20260505111710 60 283 2.0 5.0 0.00 0.00 0.00 51 993.1
20260505111209 61 193 3.0 3.0 0.00 0.00 0.00 50 992.8
20260505110709 61 260 2.0 2.0 0.00 0.00 0.00 50 992.8
20260505110209 61 192 5.0 5.0 0.00 0.00 0.00 50 992.6
20260505102209 62 235 3.0 5.0 0.00 0.00 0.00 50 992.0
20260505101709 63 151 3.0 3.0 0.00 0.00 0.00 49 992.0
20260505101211 63 184 2.0 3.0 0.00 0.00 0.00 49 991.7
20260505100710 63 244 3.0 7.0 0.00 0.00 0.00 49 991.7
20260505100210 63 292 5.0 5.0 0.00 0.00 0.00 49 991.4
20260505095710 64 213 5.0 6.0 0.00 0.00 0.00 48 991.4
20260505095210 64 205 6.0 12.0 0.00 0.00 0.00 48 991.4
20260505094710 64 158 3.0 5.0 0.00 0.00 0.00 48 991.3
20260505094210 64 228 5.0 6.0 0.00 0.00 0.00 47 991.3
20260505093709 64 117 5.0 7.0 0.00 0.00 0.00 47 991.0
20260505093209 65 248 5.0 5.0 0.00 0.00 0.00 47 991.0
20260505092709 65 238 6.0 8.0 0.00 0.00 0.00 47 990.9
20260505092211 65 246 5.0 7.0 0.00 0.00 0.00 47 990.9
20260505091711 66 231 5.0 6.0 0.00 0.00 0.00 46 990.9
20260505091210 66 260 6.0 7.0 0.00 0.00 0.00 46 990.6
20260505090710 67 171 5.0 6.0 0.00 0.00 0.00 45 990.6
20260505090210 67 250 5.0 8.0 0.00 0.00 0.00 45 990.4
20260505085710 68 245 10.0 10.0 0.00 0.00 0.00 45 990.4
20260505085209 68 191 7.0 9.0 0.00 0.00 0.00 44 990.4
20260505084709 68 203 9.0 14.0 0.00 0.00 0.00 44 990.3
20260505084209 68 169 8.0 12.0 0.00 0.00 0.00 44 990.3
20260505083711 69 189 9.0 9.0 0.00 0.00 0.00 44 990.2
20260505083211 69 214 10.0 13.0 0.00 0.00 0.00 43 990.2
20260505082711 70 224 7.0 13.0 0.00 0.00 0.00 43 990.1
20260505082210 70 236 2.0 5.0 0.00 0.00 0.00 43 990.1
20260505081710 71 255 6.0 12.0 0.00 0.00 0.00 42 990.1
20260505081210 71 240 9.0 10.0 0.00 0.00 0.00 42 990.0
20260505080710 71 200 7.0 8.0 0.00 0.00 0.00 42 990.0
20260505080209 71 228 8.0 9.0 0.00 0.00 0.00 42 989.9
20260505075709 72 202 7.0 10.0 0.00 0.00 0.00 41 989.9
20260505075209 72 259 6.0 8.0 0.00 0.00 0.00 42 989.9
20260505074711 72 236 10.0 10.0 0.00 0.00 0.00 41 989.7
20260505074211 72 234 9.0 9.0 0.00 0.00 0.00 40 989.7
20260505073710 73 191 8.0 10.0 0.00 0.00 0.00 40 989.6
20260505073210 73 248 7.0 9.0 0.00 0.00 0.00 40 989.6
20260505072710 73 229 7.0 8.0 0.00 0.00 0.00 40 989.5
20260505072210 74 203 6.0 10.0 0.00 0.00 0.00 39 989.5
20260505071709 73 247 7.0 7.0 0.00 0.00 0.00 39 989.5
20260505071209 73 214 14.0 16.0 0.00 0.00 0.00 39 989.4
20260505070711 74 228 7.0 7.0 0.00 0.00 0.00 39 989.4
20260505070211 74 191 9.0 10.0 0.00 0.00 0.00 39 989.3
20260505065710 74 202 8.0 10.0 0.00 0.00 0.00 39 989.3
20260505065210 74 288 9.0 8.0 0.00 0.00 0.00 38 989.3
20260505064710 74 270 7.0 13.0 0.00 0.00 0.00 38 989.3
20260505064210 74 273 8.0 8.0 0.00 0.00 0.00 38 989.3
20260505063709 74 192 10.0 10.0 0.00 0.00 0.00 38 989.1
20260505063210 75 210 6.0 9.0 0.00 0.00 0.00 38 989.1
20260505062709 75 227 12.0 18.0 0.00 0.00 0.00 37 989.0
20260505062209 76 261 7.0 12.0 0.00 0.00 0.00 37 989.0
20260505061711 75 195 9.0 12.0 0.00 0.00 0.00 37 989.0
20260505061211 76 219 8.0 12.0 0.00 0.00 0.00 36 989.0
20260505060710 75 251 9.0 13.0 0.00 0.00 0.00 36 989.0
20260505060210 76 191 8.0 10.0 0.00 0.00 0.00 36 988.9
20260505055710 77 243 6.0 7.0 0.00 0.00 0.00 35 988.9
20260505055210 78 275 6.0 9.0 0.00 0.00 0.00 34 988.9
20260505054710 77 251 5.0 7.0 0.00 0.00 0.00 34 989.0
20260505054210 77 202 7.0 9.0 0.00 0.00 0.00 34 989.0
20260505053709 76 201 9.0 10.0 0.00 0.00 0.00 34 989.1
20260505053210 76 297 5.0 7.0 0.00 0.00 0.00 33 989.1
20260505052710 77 251 6.0 8.0 0.00 0.00 0.00 32 989.2
20260505052209 77 233 6.0 6.0 0.00 0.00 0.00 31 989.2
20260505051709 77 192 3.0 3.0 0.00 0.00 0.00 25 989.2
20260505051209 77 223 3.0 5.0 0.00 0.00 0.00 25 989.4
20260505050709 76 192 3.0 3.0 0.00 0.00 0.00 24 989.4
20260505050211 76 165 3.0 6.0 0.00 0.00 0.00 24 989.5
20260505041710 76 254 3.0 5.0 0.00 0.00 0.00 22 990.0
20260505041210 76 249 2.0 3.0 0.00 0.00 0.00 21 990.0
20260505040710 75 218 2.0 3.0 0.00 0.00 0.00 22 990.0
20260505040210 75 355 3.0 3.0 0.00 0.00 0.00 23 990.1
20260505035710 74 9 2.0 3.0 0.00 0.00 0.00 23 990.2
20260505035211 74 187 3.0 3.0 0.00 0.00 0.00 23 990.2
20260505034711 73 120 2.0 3.0 0.00 0.00 0.00 23 990.3
20260505034211 74 190 3.0 5.0 0.00 0.00 0.00 22 990.3
20260505033710 74 273 2.0 2.0 0.00 0.00 0.00 22 990.4
20260505033210 74 250 3.0 5.0 0.00 0.00 0.00 22 990.4
20260505032710 74 269 2.0 3.0 0.00 0.00 0.00 23 990.5
20260505032210 74 270 3.0 3.0 0.00 0.00 0.00 23 990.5
20260505031710 73 191 2.0 3.0 0.00 0.00 0.00 25 990.5
20260505031210 73 102 3.0 3.0 0.00 0.00 0.00 23 990.6
20260505030709 73 225 2.0 2.0 0.00 0.00 0.00 22 990.6
20260505030209 73 331 3.0 3.0 0.00 0.00 0.00 21 990.7
20260505025709 72 286 5.0 5.0 0.00 0.00 0.00 22 990.7
20260505025211 72 340 2.0 3.0 0.00 0.00 0.00 22 990.7
20260505024710 71 297 3.0 5.0 0.00 0.00 0.00 22 990.7
20260505024210 71 180 2.0 3.0 0.00 0.00 0.00 26 990.7
20260505023710 71 193 3.0 5.0 0.00 0.00 0.00 24 990.9
20260505023210 71 180 3.0 6.0 0.00 0.00 0.00 23 990.9
20260505022710 72 81 3.0 5.0 0.00 0.00 0.00 23 991.0
20260505022209 71 0 2.0 5.0 0.00 0.00 0.00 25 991.1
20260505021709 69 12 2.0 5.0 0.00 0.00 0.00 24 991.1
20260505021210 70 173 3.0 5.0 0.00 0.00 0.00 25 991.2
20260505020710 70 191 2.0 5.0 0.00 0.00 0.00 24 991.2
20260505020210 70 202 3.0 6.0 0.00 0.00 0.00 24 991.3
20260505015709 69 235 3.0 3.0 0.00 0.00 0.00 25 991.3
20260505015209 69 336 2.0 2.0 0.00 0.00 0.00 25 991.3
20260505014709 69 166 3.0 3.0 0.00 0.00 0.00 27 991.4
20260505014211 69 172 2.0 2.0 0.00 0.00 0.00 25 991.4
20260505013711 70 118 5.0 6.0 0.00 0.00 0.00 25 991.5
20260505013211 70 98 3.0 3.0 0.00 0.00 0.00 23 991.5
20260505012710 69 162 3.0 6.0 0.00 0.00 0.00 26 991.5
20260505012210 68 159 3.0 5.0 0.00 0.00 0.00 24 991.5
20260505011710 69 128 2.0 5.0 0.00 0.00 0.00 26 991.5
20260505011210 69 101 2.0 3.0 0.00 0.00 0.00 24 991.6
20260505010710 67 283 2.0 3.0 0.00 0.00 0.00 25 991.6
20260505010210 67 112 2.0 2.0 0.00 0.00 0.00 25 991.6
20260505005709 68 147 3.0 3.0 0.00 0.00 0.00 28 991.6
20260505005210 67 18 5.0 6.0 0.00 0.00 0.00 25 991.6
20260505004710 67 2 2.0 2.0 0.00 0.00 0.00 25 991.7
20260505004209 67 45 3.0 3.0 0.00 0.00 0.00 25 991.7
20260505003709 64 3 2.0 3.0 0.00 0.00 0.00 28 991.6
20260505003211 66 116 5.0 6.0 0.00 0.00 0.00 28 991.6
20260505002711 66 144 6.0 7.0 0.00 0.00 0.00 28 991.6
20260505002210 66 121 3.0 6.0 0.00 0.00 0.00 31 991.6
20260505001710 64 280 2.0 6.0 0.00 0.00 0.00 28 991.6
20260505001210 66 270 5.0 6.0 0.00 0.00 0.00 29 991.6
20260505000710 65 17 3.0 3.0 0.00 0.00 0.00 28 991.6
20260505000211 64 199 3.0 5.0 0.00 0.00 0.00 29 991.6
20260504235709 64 305 3.0 3.0 0.00 0.00 0.00 29 991.6
20260504235209 65 314 5.0 6.0 0.00 0.00 0.00 28 991.6
20260504234711 63 77 2.0 2.0 0.00 0.00 0.00 31 991.7
20260504234211 63 152 2.0 3.0 0.00 0.00 0.00 30 991.7
20260504233710 63 228 2.0 5.0 0.00 0.00 0.00 30 991.9
20260504233210 63 117 3.0 3.0 0.00 0.00 0.00 30 991.9
20260504232710 63 86 2.0 3.0 0.00 0.00 0.00 32 991.9
20260504232210 62 102 1.0 3.0 0.00 0.00 0.00 32 991.9
20260504231709 60 147 3.0 3.0 0.00 0.00 0.00 34 991.9
20260504231210 61 112 3.0 6.0 0.00 0.01 0.00 34 992.0
20260504230710 60 192 3.0 5.0 0.00 0.01 0.00 35 992.0
20260504230210 60 177 5.0 5.0 0.00 0.01 0.00 34 991.8
20260504225710 61 191 5.0 5.0 0.00 0.01 0.00 34 991.8
20260504225209 60 175 2.0 2.0 0.00 0.01 0.00 35 991.8
20260504224709 60 85 2.0 3.0 0.00 0.01 0.00 38 991.7
20260504224209 59 90 3.0 5.0 0.00 0.01 0.00 38 991.7
20260504223711 59 144 2.0 3.0 0.00 0.01 0.00 39 991.6
20260504223211 59 166 5.0 5.0 0.00 0.01 0.00 40 991.6
20260504222710 59 206 5.0 5.0 0.00 0.01 0.00 39 991.5
20260504222209 59 157 2.0 3.0 0.00 0.01 0.00 39 991.5
20260504221709 59 269 2.0 2.0 0.00 0.01 0.00 40 991.5
20260504221211 57 282 2.0 2.0 0.00 0.02 0.00 40 991.5
20260504220711 58 134 3.0 5.0 0.00 0.02 0.00 40 991.5
20260504220211 58 121 2.0 5.0 0.00 0.02 0.00 41 991.3
20260504215710 58 43 2.0 2.0 0.00 0.02 0.00 41 991.3
20260504215210 58 125 2.0 2.0 0.00 0.02 0.00 40 991.3
20260504214710 56 321 2.0 3.0 0.00 0.03 0.00 42 991.2
20260504214210 56 12 2.0 3.0 0.00 0.04 0.00 41 991.2
20260504213710 56 338 3.0 6.0 0.00 0.05 0.00 42 991.2
20260504213209 56 4 3.0 5.0 0.00 0.06 0.00 42 991.2
20260504212709 55 290 3.0 3.0 0.00 0.06 0.00 42 991.1
20260504212211 55 315 2.0 2.0 0.00 0.06 0.00 43 991.0
20260504211711 55 104 3.0 2.0 0.00 0.06 0.00 44 991.0
20260504211211 54 202 2.0 2.0 0.00 0.06 0.00 48 990.7
20260504210710 54 208 2.0 3.0 0.00 0.06 0.00 49 990.7
20260504210210 53 202 2.0 3.0 0.00 0.06 0.00 49 990.4
20260504205710 53 124 1.0 1.0 0.00 0.06 0.00 49 990.4
20260504205210 53 188 2.0 3.0 0.00 0.06 0.00 48 990.4
20260504204710 53 281 2.0 5.0 0.00 0.06 0.00 45 990.1
20260504204209 53 9 1.0 1.0 0.00 0.06 0.00 48 990.1
20260504203709 52 333 2.0 2.0 0.00 0.06 0.00 48 990.0
20260504203211 52 357 3.0 5.0 0.00 0.06 0.00 47 990.0
20260504202711 52 6 2.0 3.0 0.00 0.06 0.00 47 989.9
20260504202210 52 344 3.0 3.0 0.00 0.06 0.00 48 989.8
20260504201710 52 13 5.0 7.0 0.00 0.07 0.00 48 989.8
20260504201210 52 293 5.0 6.0 0.00 0.07 0.00 47 989.4
20260504200710 52 324 6.0 9.0 0.00 0.07 0.00 46 989.4
20260504200209 52 18 3.0 5.0 0.00 0.07 0.00 43 989.0
20260504195709 52 348 5.0 6.0 0.00 0.07 0.00 42 989.0
20260504195211 52 21 5.0 7.0 0.00 0.07 0.00 42 989.0
20260504194711 50 292 5.0 7.0 0.00 0.07 0.00 49 988.9
20260504194210 51 354 2.0 2.0 0.00 0.07 0.00 48 988.9
20260504193709 51 270 2.0 3.0 0.00 0.08 0.00 48 988.5
20260504193209 51 276 3.0 3.0 0.00 0.08 0.00 49 988.5
20260504192711 51 289 3.0 3.0 0.00 0.08 0.00 49 988.4
20260504192211 51 273 3.0 3.0 0.00 0.08 0.00 48 988.4
20260504191710 51 243 3.0 3.0 0.00 0.08 0.00 49 988.4
20260504191210 51 270 3.0 5.0 0.00 0.09 0.00 49 988.2
20260504190710 52 270 3.0 3.0 0.00 0.10 0.00 48 988.2
20260504190211 52 287 3.0 3.0 0.00 0.11 0.00 48 988.0
20260504185711 52 278 3.0 3.0 0.00 0.13 0.00 48 988.0
20260504185210 52 351 3.0 6.0 0.00 0.15 0.00 49 988.0
20260504184710 52 292 3.0 3.0 0.00 0.19 0.00 50 987.7
20260504184210 52 338 5.0 8.0 0.00 0.20 0.00 50 987.7
20260504183710 52 330 6.0 10.0 0.00 0.22 0.00 50 987.3
20260504183210 53 246 5.0 5.0 0.00 0.25 0.00 51 987.3
20260504182709 53 329 7.0 8.0 0.00 0.29 0.00 51 987.2
20260504182209 53 13 5.0 6.0 0.00 0.34 0.00 51 987.1
20260504181711 53 348 6.0 6.0 0.00 0.36 0.00 51 987.1
20260504181211 53 78 5.0 6.0 0.00 0.39 0.00 51 986.9
20260504180710 53 37 6.0 10.0 0.00 0.39 0.00 51 986.9
20260504180210 53 17 7.0 7.0 0.00 0.40 0.00 51 986.7
20260504175710 53 356 5.0 6.0 0.00 0.41 0.00 53 986.7
20260504175210 53 103 5.0 6.0 0.00 0.43 0.00 52 986.7
20260504174710 53 90 5.0 3.0 0.00 0.45 0.00 52 986.2
20260504174209 54 3 6.0 9.0 0.00 0.46 0.00 52 986.2
20260504173711 53 16 9.0 13.0 0.00 0.48 0.00 53 985.7
20260504173211 53 0 5.0 5.0 0.00 0.49 0.00 53 985.7
20260504172711 54 337 5.0 6.0 0.00 0.50 0.00 54 985.6
20260504172210 54 352 5.0 5.0 0.00 0.51 0.00 54 985.4
20260504171710 54 49 3.0 3.0 0.00 0.52 0.00 54 985.4
20260504171210 54 15 5.0 5.0 0.00 0.53 0.00 53 985.0
20260504170710 55 164 2.0 3.0 0.00 0.54 0.00 53 985.0
20260504170209 55 5 3.0 5.0 0.00 0.55 0.00 51 984.6
20260504160115 58 88 3.0 5.0 0.00 0.59 0.00 45 983.0
20260504151116 59 30 9.0 9.0 0.00 0.59 0.00 39 981.8
20260504150616 60 279 7.0 6.0 0.00 0.60 0.00 39 981.8
20260504150116 59 333 8.0 20.0 0.00 0.60 0.00 39 981.4
20260504141115 60 346 12.0 13.0 0.00 0.60 0.60 40 980.4
20260504140615 60 6 5.0 6.0 0.00 0.61 0.60 40 980.4
20260504140116 60 3 5.0 8.0 0.00 0.61 0.60 40 980.1
20260504130615 61 7 3.0 2.0 0.00 0.61 0.60 40 979.0
20260504130117 61 272 6.0 7.0 0.00 0.61 0.60 39 978.7
20260504120115 62 308 7.0 9.0 0.00 0.61 0.60 39 977.2